Location: �chenoz-la-M�line
(47.6009°N, 6.1354°E)
Time: 12:01:54
(UTC+00:00)

Cosmos 2058 Rocket - Pass Details

Date: 27 January 2021
Orbit: 611 x 639 km, 82.5° (Epoch: 02 March)

Event Time Altitude Azimuth Distance (km) Brightness Sun altitude
Rises 06:13:37 0° 193° (SSW) 2,881 6.6 -9.3°
Reaches altitude 10° 06:15:49 10° 195° (SSW) 1,985 5.7 -9.0°
Maximum altitude 06:20:13 73° 281° (W) 659 3.0 -8.3°
Drops below altitude 10° 06:24:41 10° 6° (N) 2,019 5.6 -7.6°
Sets 06:26:57 0° 8° (N) 2,936 6.4 -7.2°
